• In Kazakhstan
  • List of Countries
  • For 7 days
  • Water Temperature
  • Satellite Maps
  • Weather Map
  • News
  • Weather Widgets
  • user-avatar
    Login

    Hourly Weather Marmaris

    Today, 19 September, Tuesday

    Time Temperature Precipitation Wind Pressure Humidity
    00:00 +27°C° 0 mm 1 mps 754 mmHg 67%
    01:00 +27°C° 0 mm 1 mps 754 mmHg 61%
    02:00 +27°C° 0 mm 1 mps 753 mmHg 48%
    03:00 +27°C° 0 mm 1 mps 753 mmHg 43%
    04:00 +27°C° 0 mm 1 mps 753 mmHg 38%
    05:00 +27°C° 0 mm 1 mps 753 mmHg 33%
    06:00 +29°C° 0 mm 1 mps 753 mmHg 29%
    07:00 +31°C° 0 mm 1 mps 753 mmHg 25%
    08:00 +34°C° 0 mm 1 mps 753 mmHg 21%
    09:00 +36°C° 0 mm 1 mps 753 mmHg 19%
    10:00 +39°C° 0 mm 1 mps 753 mmHg 17%
    11:00 +41°C° 0 mm 2 mps 753 mmHg 15%
    12:00 +41°C° 0 mm 2 mps 753 mmHg 16%
    13:00 +42°C° 0 mm 3 mps 753 mmHg 16%
    14:00 +40°C° 0 mm 3 mps 753 mmHg 20%
    15:00 +39°C° 0 mm 3 mps 753 mmHg 23%
    16:00 +38°C° 0 mm 3 mps 753 mmHg 26%
    17:00 +37°C° 0 mm 2 mps 753 mmHg 29%
    18:00 +34°C° 0 mm 2 mps 754 mmHg 37%
    19:00 +31°C° 0 mm 1 mps 754 mmHg 46%
    20:00 +28°C° 0 mm 1 mps 754 mmHg 54%
    21:00 +28°C° 0 mm 1 mps 754 mmHg 50%
    22:00 +28°C° 0 mm 1 mps 754 mmHg 46%
    23:00 +28°C° 0 mm 1 mps 755 mmHg 42%

    Tomorrow, 20 September, Wednesday

    Time Temperature Precipitation Wind Pressure Humidity
    00:00 +28°C° 0 mm 1 mps 755 mmHg 38%
    01:00 +28°C° 0 mm 1 mps 754 mmHg 33%
    02:00 +28°C° 0 mm 1 mps 754 mmHg 29%
    03:00 +28°C° 0 mm 1 mps 754 mmHg 28%
    04:00 +28°C° 0 mm 1 mps 754 mmHg 26%
    05:00 +27°C° 0 mm 1 mps 754 mmHg 25%
    06:00 +29°C° 0 mm 1 mps 754 mmHg 23%
    07:00 +32°C° 0 mm 1 mps 755 mmHg 21%
    08:00 +34°C° 0 mm 1 mps 755 mmHg 19%
    09:00 +35°C° 0 mm 1 mps 755 mmHg 17%
    10:00 +38°C° 0 mm 2 mps 755 mmHg 16%
    11:00 +40°C° 0 mm 3 mps 755 mmHg 14%
    12:00 +40°C° 0 mm 3 mps 755 mmHg 14%
    13:00 +42°C° 0 mm 3 mps 755 mmHg 15%
    14:00 +42°C° 0 mm 3 mps 754 mmHg 15%
    15:00 +40°C° 0 mm 3 mps 754 mmHg 17%
    16:00 +39°C° 0 mm 3 mps 754 mmHg 19%
    17:00 +37°C° 0 mm 3 mps 754 mmHg 21%
    18:00 +35°C° 0 mm 2 mps 754 mmHg 27%
    19:00 +31°C° 0 mm 2 mps 755 mmHg 34%
    20:00 +28°C° 0 mm 1 mps 755 mmHg 40%
    21:00 +28°C° 0 mm 1 mps 755 mmHg 40%
    22:00 +28°C° 0 mm 2 mps 755 mmHg 39%
    23:00 +28°C° 0 mm 2 mps 755 mmHg 39%

    Day after tomorrow, 21 September, Thursday

    Time Temperature Precipitation Wind Pressure Humidity
    00:00 +27°C° 0 mm 2 mps 755 mmHg 38%
    01:00 +27°C° 0 mm 2 mps 755 mmHg 38%
    02:00 +26°C° 0 mm 3 mps 755 mmHg 38%
    03:00 +26°C° 0 mm 3 mps 755 mmHg 41%
    04:00 +25°C° 0 mm 3 mps 755 mmHg 44%
    05:00 +25°C° 0 mm 3 mps 755 mmHg 47%
    06:00 +26°C° 0 mm 3 mps 755 mmHg 46%
    07:00 +28°C° 0 mm 3 mps 755 mmHg 44%
    08:00 +29°C° 0 mm 3 mps 755 mmHg 43%
    09:00 +31°C° 0 mm 3 mps 755 mmHg 37%
    10:00 +33°C° 0 mm 4 mps 755 mmHg 31%
    11:00 +35°C° 0 mm 4 mps 755 mmHg 25%
    12:00 +35°C° 0 mm 4 mps 755 mmHg 25%
    13:00 +35°C° 0 mm 5 mps 755 mmHg 24%
    14:00 +35°C° 0 mm 5 mps 754 mmHg 24%
    15:00 +33°C° 0 mm 5 mps 754 mmHg 29%
    16:00 +32°C° 0 mm 5 mps 754 mmHg 34%
    17:00 +29°C° 0 mm 5 mps 754 mmHg 39%
    18:00 +27°C° 0 mm 4 mps 755 mmHg 49%
    19:00 +25°C° 0 mm 4 mps 755 mmHg 59%
    20:00 +22°C° 0 mm 3 mps 755 mmHg 69%
    21:00 +21°C° 0 mm 3 mps 756 mmHg 72%
    22:00 +21°C° 0 mm 3 mps 756 mmHg 75%
    23:00 +20°C° 0 mm 3 mps 756 mmHg 78%

    22 September, Friday

    Time Temperature Precipitation Wind Pressure Humidity
    00:00 +20°C° 0 mm 3 mps 756 mmHg 79%
    01:00 +19°C° 0 mm 3 mps 756 mmHg 80%
    02:00 +19°C° 0 mm 3 mps 755 mmHg 82%
    03:00 +19°C° 0 mm 3 mps 755 mmHg 82%
    04:00 +18°C° 0 mm 3 mps 755 mmHg 82%
    05:00 +18°C° 0 mm 3 mps 755 mmHg 82%
    06:00 +20°C° 0 mm 3 mps 756 mmHg 73%
    07:00 +21°C° 0 mm 3 mps 756 mmHg 64%
    08:00 +24°C° 0 mm 3 mps 756 mmHg 55%
    09:00 +26°C° 0 mm 3 mps 756 mmHg 45%
    10:00 +28°C° 0 mm 4 mps 756 mmHg 35%
    11:00 +30°C° 0 mm 4 mps 756 mmHg 25%
    12:00 +30°C° 0 mm 5 mps 756 mmHg 24%
    13:00 +32°C° 0 mm 5 mps 756 mmHg 22%
    14:00 +32°C° 0 mm 6 mps 756 mmHg 21%
    15:00 +32°C° 0 mm 6 mps 756 mmHg 23%
    16:00 +30°C° 0 mm 6 mps 756 mmHg 25%
    17:00 +29°C° 0 mm 7 mps 756 mmHg 27%
    18:00 +27°C° 0 mm 6 mps 756 mmHg 33%
    19:00 +24°C° 0 mm 6 mps 757 mmHg 39%
    20:00 +22°C° 0 mm 5 mps 757 mmHg 45%
    21:00 +21°C° 0 mm 5 mps 757 mmHg 46%
    22:00 +21°C° 0 mm 5 mps 757 mmHg 48%
    23:00 +20°C° 0 mm 5 mps 757 mmHg 49%

    23 September, Saturday

    Time Temperature Precipitation Wind Pressure Humidity
    00:00 +20°C° 0 mm 5 mps 757 mmHg 51%
    01:00 +19°C° 0 mm 5 mps 757 mmHg 52%
    02:00 +19°C° 0 mm 4 mps 757 mmHg 53%
    03:00 +18°C° 0 mm 4 mps 757 mmHg 55%
    04:00 +18°C° 0 mm 4 mps 757 mmHg 56%
    05:00 +18°C° 0 mm 4 mps 757 mmHg 57%
    06:00 +19°C° 0 mm 4 mps 757 mmHg 52%
    07:00 +21°C° 0 mm 4 mps 757 mmHg 47%
    08:00 +23°C° 0 mm 4 mps 758 mmHg 43%
    09:00 +26°C° 0 mm 4 mps 758 mmHg 36%
    10:00 +29°C° 0 mm 4 mps 758 mmHg 30%
    11:00 +31°C° 0 mm 3 mps 757 mmHg 23%
    12:00 +32°C° 0 mm 4 mps 757 mmHg 22%
    13:00 +33°C° 0 mm 4 mps 757 mmHg 20%
    14:00 +33°C° 0 mm 5 mps 756 mmHg 19%
    15:00 +32°C° 0 mm 5 mps 757 mmHg 20%
    16:00 +32°C° 0 mm 5 mps 757 mmHg 22%
    17:00 +30°C° 0 mm 5 mps 757 mmHg 23%
    18:00 +28°C° 0 mm 5 mps 757 mmHg 28%
    19:00 +25°C° 0 mm 5 mps 757 mmHg 32%
    20:00 +22°C° 0 mm 5 mps 757 mmHg 37%
    21:00 +22°C° 0 mm 4 mps 757 mmHg 37%
    22:00 +21°C° 0 mm 4 mps 757 mmHg 37%
    23:00 +20°C° 0 mm 4 mps 757 mmHg 38%

    24 September, Sunday

    Time Temperature Precipitation Wind Pressure Humidity
    00:00 +20°C° 0 mm 4 mps 757 mmHg 38%
    01:00 +20°C° 0 mm 4 mps 757 mmHg 39%
    02:00 +19°C° 0 mm 4 mps 757 mmHg 40%
    03:00 +19°C° 0 mm 4 mps 757 mmHg 41%
    04:00 +19°C° 0 mm 4 mps 757 mmHg 42%
    05:00 +18°C° 0 mm 4 mps 757 mmHg 43%
    06:00 +20°C° 0 mm 3 mps 757 mmHg 40%
    07:00 +22°C° 0 mm 3 mps 757 mmHg 37%
    08:00 +25°C° 0 mm 3 mps 757 mmHg 33%
    09:00 +27°C° 0 mm 3 mps 757 mmHg 29%
    10:00 +29°C° 0 mm 3 mps 757 mmHg 25%
    11:00 +31°C° 0 mm 3 mps 757 mmHg 20%
    12:00 +33°C° 0 mm 3 mps 756 mmHg 20%
    13:00 +33°C° 0 mm 3 mps 756 mmHg 19%
    14:00 +34°C° 0 mm 4 mps 756 mmHg 18%
    15:00 +33°C° 0 mm 4 mps 756 mmHg 21%
    16:00 +32°C° 0 mm 4 mps 756 mmHg 23%
    17:00 +30°C° 0 mm 4 mps 756 mmHg 26%
    18:00 +28°C° 0 mm 3 mps 756 mmHg 30%
    19:00 +26°C° 0 mm 3 mps 756 mmHg 35%
    20:00 +24°C° 0 mm 2 mps 756 mmHg 40%
    21:00 +23°C° 0 mm 2 mps 756 mmHg 38%
    22:00 +23°C° 0 mm 2 mps 756 mmHg 37%
    23:00 +22°C° 0 mm 3 mps 756 mmHg 36%
    Show more